Terminal Aerodrome Forecast
Issued by NWS

Current Version | Previous Version | Graphics & Text | Print | Product List | Glossary On
Versions: 1 2 3 4 5 6 7 8 9 10 11 12 13 14 15 16 17
000
FTUS41 KILN 261700
TAFLUK
TAF
KLUK 261728Z 2618/2718 VRB04KT P6SM SCT035 SCT250
     FM270000 00000KT P6SM SCT250
     FM270600 00000KT 3SM BR SCT250
     FM270800 00000KT 2SM BR VCTS SCT050CB BKN100
     FM271300 34004KT P6SM VCTS BKN050CB=

USA.gov is the U.S. government's official web portal to all federal, state and local government web resources and services.